sat.trackr.live / text

‹ back to catalog

STARLINK-36688

NORAD 67656 · 2026-022J

PAYLOAD ACTIVE UNKNOWN

§ Identity

Operator
Country
US
Launch date
2026-02-02
Launch site
AFWTR
Launch vehicle
Mass (kg)
RCS (m²)

Purposes: comms

External: N2YO · Heavens-Above · Gunter

§ Orbital elements

Epoch: 2026-05-25T01:53:57.765120Z

Period
93.91 min
Inclination
97.2858°
Eccentricity
0.0001462
Mean motion
15.33456707 rev/d
Perigee alt
464.5 km
Apogee alt
466.5 km
Semi-major
6,843.6 km
B*
6.4214e-4
RAAN
178.4004°
Arg perigee
115.6223°
Mean anomaly
244.5171°
Rev number
1,728

§ Raw data

STARLINK-366881 67656U 26022J   26145.07914080  .00020720  00000+0  64214-3 0  99992 67656  97.2858 178.4004 0001462 115.6223 244.5171 15.33456707 17281

JSON: /api/v1/satellites/67656 · /tle

For live sub-satellite position, see the globe view (requires WebGL).

§ Visibility from observer

Set your observer location to see the next 7 days of passes ≥ 10°. The values pass through the URL so the page stays shareable.

No JS? Fill the form by hand. The geolocation button needs JavaScript.